Weather History for KFNB - October, 2012

Change the Weather History Date:

Tuesday, October 30, 2012

  Actual Average (WUND) Record (WUND)
Temperature  
Mean Temperature 44 °F -  
Max Temperature 57 °F - - (-1)
Min Temperature 34 °F - - (-1)
Degree Days  
Heating Degree Days 20    
Moisture  
Dew Point 28 °F    
Average Humidity 57    
Maximum Humidity 79    
Minimum Humidity 33    
Precipitation  
Precipitation 0.00 in - - ()
Sea Level Pressure  
Sea Level Pressure 30.06 in    
Wind  
Wind Speed 7 mph (East)    
Max Wind Speed 15 mph    
Max Gust Speed -    
Visibility 10 miles    
Events      
Averages and records for this station are not official NWS values.
T = Trace of Precipitation, MM = Missing Value Source: NWS Daily Summary

Daily Weather History Graph

Daily Weather History Graph

Search for Another Location

Airport or City:

Trip Planner

Search our weather history database for the weather conditions in past years. The results will help you decide how hot, cold, wet, or windy it might be!

Date:

Astronomy

Oct. 30, 2012 Rise Set
Actual Time 7:49 AM CDT 6:21 PM CDT
Civil Twilight 7:21 AM CDT 6:49 PM CDT
Nautical Twilight 6:49 AM CDT 7:21 PM CDT
Astronomical Twilight 6:18 AM CDT 7:53 PM CDT
Moon 6:51 PM CDT (10/30) 8:37 AM CDT (10/30)
Length of Visible Light 11h 27m
Length of Day
10h 31m
Full, 99% of the Moon is Illuminated
Oct 30
Full
Nov 6
Last Quarter
Nov 13
New
Nov 20
First Quarter
Nov 28
Full

Hourly Weather History & Observations

Time (CDT) Temp. Windchill Dew Point Humidity Pressure Visibility Wind Dir Wind Speed Gust Speed Precip Events Conditions
12:53 AM 37.0 °F 31.6 °F 30.0 °F 76% 30.12 in 10.0 mi ESE 6.9 mph - N/A   Clear
1:53 AM 37.4 °F 31.4 °F 30.2 °F 75% 30.10 in 10.0 mi ESE 8.1 mph - N/A   Clear
2:53 AM 37.0 °F 31.6 °F 30.0 °F 76% 30.09 in 10.0 mi ESE 6.9 mph - N/A   Clear
3:53 AM 36.0 °F 31.1 °F 28.9 °F 76% 30.08 in 10.0 mi ESE 5.8 mph - N/A   Clear
4:53 AM 36.0 °F 32.1 °F 28.9 °F 76% 30.06 in 10.0 mi SE 4.6 mph - N/A   Clear
5:53 AM 35.1 °F 29.3 °F 28.9 °F 78% 30.08 in 10.0 mi East 6.9 mph - N/A   Mostly Cloudy
6:53 AM 34.0 °F 28.8 °F 28.0 °F 79% 30.07 in 10.0 mi East 5.8 mph - N/A   Clear
7:53 AM 36.0 °F 29.6 °F 28.9 °F 76% 30.06 in 10.0 mi East 8.1 mph - N/A   Clear
8:53 AM 39.0 °F 33.4 °F 30.9 °F 73% 30.08 in 10.0 mi East 8.1 mph - N/A   Partly Cloudy
9:53 AM 42.8 °F 37.0 °F 30.2 °F 61% 30.06 in 10.0 mi East 10.4 mph - N/A   Clear
10:53 AM 46.0 °F 39.6 °F 30.9 °F 56% 30.07 in 10.0 mi ESE 15.0 mph - N/A   Mostly Cloudy
11:53 AM 50.0 °F - 28.9 °F 44% 30.07 in 10.0 mi ESE 11.5 mph - N/A   Overcast
12:53 PM 54.0 °F - 27.0 °F 35% 30.06 in 10.0 mi ESE 12.7 mph - N/A   Clear
1:53 PM 54.0 °F - 27.0 °F 35% 30.05 in 10.0 mi East 10.4 mph - N/A   Partly Cloudy
2:53 PM 55.9 °F - 27.0 °F 33% 30.02 in 10.0 mi East 11.5 mph - 0.00 in   Partly Cloudy
3:53 PM 55.9 °F - 27.0 °F 33% 30.02 in 10.0 mi East 8.1 mph - N/A   Mostly Cloudy
4:53 PM 55.0 °F - 28.0 °F 35% 30.03 in 10.0 mi NE 4.6 mph - N/A   Clear
5:53 PM 51.1 °F - 28.0 °F 41% 30.02 in 10.0 mi ENE 4.6 mph - N/A   Clear
6:53 PM 48.2 °F - 26.6 °F 43% 30.02 in 10.0 mi Calm Calm - N/A   Clear
7:53 PM 46.9 °F - 28.0 °F 48% 30.04 in 10.0 mi Calm Calm - N/A   Overcast
8:53 PM 44.1 °F - 28.0 °F 53% 30.04 in 10.0 mi Calm Calm - N/A   Clear
9:53 PM 42.1 °F - 28.0 °F 58% 30.05 in 10.0 mi Calm Calm - N/A   Scattered Clouds
10:53 PM 42.1 °F - 26.1 °F 53% 30.05 in 10.0 mi Calm Calm - N/A   Clear
11:53 PM 37.9 °F - 27.0 °F 65% 30.06 in 10.0 mi Calm Calm - N/A   Clear